Orbital Elements at Epoch 2459000.5 (2020-May-31.0) TDB
Reference: JPL 4 (heliocentric ecliptic J2000)
Element | Value | Uncertainty (1-sigma) | Units |
e | .5301682560325393 | 0.00033451 | |
a | .6698725344249655 | 9.4404e-05 | au |
q | .3147273810847844 | 0.00026843 | au |
i | 6.074314985127014 | 0.005612 | deg |
node | 151.0861831219191 | 0.0054765 | deg |
peri | 175.7172425032345 | 0.0066212 | deg |
M | 185.087080323439 | 0.55341 | deg |
tp | 2459097.798483775594 (2020-Sep-05.29848378) | 0.32841 | TDB |
period | 200.2565289287061 0.55 | 0.042333 0.0001159 | d yr |
n | 1.797694197167298 | 0.00038002 | deg/d |
Q | 1.025017687765147 | 0.00014445 | au |
|
| | Orbit Determination Parameters
Additional Information
|